Location: Mountain_View
(35.6670°N, 81.4000°W)
Time: 22:12:29
(UTC-05:00)

LightSail 2 - Pass Details

Date: 27 November 2019
Orbit: 696 x 730 km, 24.0° (Epoch: 12 December)

Event Time Altitude Azimuth Distance (km) Brightness Sun altitude
Rises 19:42:59 0° 218° (SW) 3,060 9.0 -30.0°
Reaches altitude 10° 19:46:42 10° 191° (SSW) 2,140 7.8 -30.7°
Enters shadow 19:47:00 11° 188° (S) 2,091 7.7 -30.8°
